PIMOHWEATHER Station Historical Data
Daily Summary for March 16, 2020 Units:  Metric    English   Both
Daily Weekly Monthly Yearly
  High: Low: Average:
Temperature: 31.0 °C 26.0 °C 27.9 °C
Dew Point: 24.0 °C 22.0 °C 23 °C
Humidity: 85% 66% 75%
Wind Speed: 28km/h 0km/h 10.4km/h
Wind Gust: 36km/h - -
Wind- - East
Pressure: 1014.2 hPa 1010.5 hPa -
Precipitation: 0.00 mm    
 
 
Tabular Data for March 16, 2020
Time Temperature Dew Point Pressure Wind Wind Speed Wind Gust Humidity Rainfall Rate (Hourly) solar
00:04 28.0 °C 23.0 °C 1011.5 hPa WNW 1 km/h 4 km/h 74% 0.00 mm 0.00 W/m2
00:09 28.0 °C 23.0 °C 1011.5 hPa North 4 km/h 4 km/h 75% 0.00 mm 0.00 W/m2
00:14 28.0 °C 23.0 °C 1011.2 hPa North 10 km/h 12 km/h 75% 0.00 mm 0.00 W/m2
00:19 28.0 °C 23.0 °C 1011.5 hPa North 6 km/h 8 km/h 75% 0.00 mm 0.00 W/m2
00:24 28.0 °C 23.0 °C 1011.5 hPa North 10 km/h 12 km/h 76% 0.00 mm 0.00 W/m2
00:29 27.0 °C 23.0 °C 1011.5 hPa NW 7 km/h 8 km/h 76% 0.00 mm 0.00 W/m2
00:34 27.0 °C 23.0 °C 1011.5 hPa NNW 8 km/h 12 km/h 76% 0.00 mm 0.00 W/m2
00:39 27.0 °C 23.0 °C 1011.2 hPa North 9 km/h 12 km/h 76% 0.00 mm 0.00 W/m2
00:44 27.0 °C 23.0 °C 1011.2 hPa North 11 km/h 12 km/h 76% 0.00 mm 0.00 W/m2
00:49 27.0 °C 23.0 °C 1011.2 hPa NW 8 km/h 16 km/h 76% 0.00 mm 0.00 W/m2
00:54 27.0 °C 23.0 °C 1011.2 hPa NNW 11 km/h 16 km/h 77% 0.00 mm 0.00 W/m2
00:59 27.0 °C 23.0 °C 1011.2 hPa NNW 12 km/h 16 km/h 77% 0.00 mm 0.00 W/m2
01:04 27.0 °C 23.0 °C 1011.2 hPa North 13 km/h 16 km/h 77% 0.00 mm 0.00 W/m2
01:09 27.0 °C 23.0 °C 1011.2 hPa North 7 km/h 12 km/h 77% 0.00 mm 0.00 W/m2
01:14 27.0 °C 23.0 °C 1010.8 hPa North 8 km/h 12 km/h 78% 0.00 mm 0.00 W/m2
01:19 27.0 °C 23.0 °C 1010.8 hPa North 14 km/h 20 km/h 78% 0.00 mm 0.00 W/m2
01:24 27.0 °C 23.0 °C 1010.8 hPa North 14 km/h 16 km/h 79% 0.00 mm 0.00 W/m2
01:29 27.0 °C 23.0 °C 1010.8 hPa North 9 km/h 12 km/h 80% 0.00 mm 0.00 W/m2
01:34 27.0 °C 23.0 °C 1010.8 hPa North 8 km/h 12 km/h 80% 0.00 mm 0.00 W/m2
01:39 27.0 °C 23.0 °C 1010.8 hPa NNE 12 km/h 12 km/h 81% 0.00 mm 0.00 W/m2
01:44 26.0 °C 23.0 °C 1010.8 hPa North 9 km/h 12 km/h 81% 0.00 mm 0.00 W/m2
01:49 27.0 °C 23.0 °C 1010.8 hPa NNE 9 km/h 12 km/h 81% 0.00 mm 0.00 W/m2
01:54 26.0 °C 23.0 °C 1010.8 hPa North 9 km/h 12 km/h 81% 0.00 mm 0.00 W/m2
01:59 26.0 °C 23.0 °C 1010.8 hPa North 9 km/h 12 km/h 82% 0.00 mm 0.00 W/m2
02:04 26.0 °C 23.0 °C 1010.8 hPa NNE 10 km/h 12 km/h 82% 0.00 mm 0.00 W/m2
02:09 26.0 °C 23.0 °C 1010.8 hPa North 10 km/h 12 km/h 82% 0.00 mm 0.00 W/m2
02:14 26.0 °C 23.0 °C 1010.8 hPa NNE 6 km/h 8 km/h 82% 0.00 mm 0.00 W/m2
02:19 26.0 °C 23.0 °C 1010.8 hPa NNE 6 km/h 8 km/h 81% 0.00 mm 0.00 W/m2
02:24 27.0 °C 23.0 °C 1010.8 hPa North 10 km/h 12 km/h 81% 0.00 mm 0.00 W/m2
02:29 26.0 °C 23.0 °C 1010.8 hPa NNE 8 km/h 12 km/h 81% 0.00 mm 0.00 W/m2
02:34 26.0 °C 23.0 °C 1010.8 hPa NNE 12 km/h 16 km/h 81% 0.00 mm 0.00 W/m2
02:39 27.0 °C 23.0 °C 1010.8 hPa NNE 12 km/h 12 km/h 81% 0.00 mm 0.00 W/m2
02:44 27.0 °C 23.0 °C 1010.8 hPa NNE 6 km/h 8 km/h 81% 0.00 mm 0.00 W/m2
02:49 27.0 °C 23.0 °C 1010.8 hPa NE 3 km/h 4 km/h 81% 0.00 mm 0.00 W/m2
02:54 27.0 °C 23.0 °C 1010.8 hPa NE 9 km/h 12 km/h 80% 0.00 mm 0.00 W/m2
02:59 27.0 °C 23.0 °C 1010.8 hPa NE 6 km/h 8 km/h 80% 0.00 mm 0.00 W/m2
03:04 27.0 °C 23.0 °C 1010.8 hPa NNE 6 km/h 8 km/h 80% 0.00 mm 0.00 W/m2
03:09 27.0 °C 23.0 °C 1010.5 hPa North 5 km/h 8 km/h 80% 0.00 mm 0.00 W/m2
03:14 27.0 °C 23.0 °C 1010.8 hPa North 9 km/h 12 km/h 80% 0.00 mm 0.00 W/m2
03:19 27.0 °C 23.0 °C 1010.8 hPa NNE 9 km/h 12 km/h 80% 0.00 mm 0.00 W/m2
03:24 27.0 °C 23.0 °C 1010.8 hPa North 2 km/h 4 km/h 80% 0.00 mm 0.00 W/m2
03:29 27.0 °C 23.0 °C 1010.8 hPa North 5 km/h 8 km/h 80% 0.00 mm 0.00 W/m2
03:34 27.0 °C 23.0 °C 1010.8 hPa NNW 4 km/h 4 km/h 80% 0.00 mm 0.00 W/m2
03:39 27.0 °C 23.0 °C 1010.8 hPa North 8 km/h 12 km/h 80% 0.00 mm 0.00 W/m2
03:44 27.0 °C 23.0 °C 1010.8 hPa North 7 km/h 8 km/h 80% 0.00 mm 0.00 W/m2
03:49 27.0 °C 23.0 °C 1011.2 hPa North 10 km/h 12 km/h 81% 0.00 mm 0.00 W/m2
03:54 26.0 °C 23.0 °C 1010.8 hPa North 7 km/h 8 km/h 82% 0.00 mm 0.00 W/m2
03:59 26.0 °C 23.0 °C 1010.8 hPa North 8 km/h 8 km/h 83% 0.00 mm 0.00 W/m2
04:04 26.0 °C 23.0 °C 1010.8 hPa NE 1 km/h 4 km/h 83% 0.00 mm 0.00 W/m2
04:09 26.0 °C 23.0 °C 1010.8 hPa NNE 5 km/h 8 km/h 82% 0.00 mm 0.00 W/m2
04:14 26.0 °C 23.0 °C 1011.2 hPa NNE 3 km/h 4 km/h 82% 0.00 mm 0.00 W/m2
04:19 27.0 °C 23.0 °C 1011.2 hPa North 7 km/h 8 km/h 82% 0.00 mm 0.00 W/m2
04:24 26.0 °C 23.0 °C 1011.2 hPa NNW 8 km/h 8 km/h 83% 0.00 mm 0.00 W/m2
04:29 26.0 °C 23.0 °C 1011.2 hPa North 9 km/h 12 km/h 83% 0.00 mm 0.00 W/m2
04:34 26.0 °C 23.0 °C 1011.2 hPa North 4 km/h 4 km/h 83% 0.00 mm 0.00 W/m2
04:39 26.0 °C 23.0 °C 1011.2 hPa NNE 10 km/h 12 km/h 83% 0.00 mm 0.00 W/m2
04:44 26.0 °C 23.0 °C 1011.5 hPa North 6 km/h 8 km/h 84% 0.00 mm 0.00 W/m2
04:49 26.0 °C 23.0 °C 1011.5 hPa NNE 8 km/h 12 km/h 83% 0.00 mm 0.00 W/m2
04:54 26.0 °C 23.0 °C 1011.5 hPa North 10 km/h 12 km/h 83% 0.00 mm 0.00 W/m2
04:59 26.0 °C 23.0 °C 1011.5 hPa NNE 10 km/h 12 km/h 83% 0.00 mm 0.00 W/m2
05:04 26.0 °C 23.0 °C 1011.5 hPa NNE 15 km/h 16 km/h 83% 0.00 mm 0.00 W/m2
05:09 26.0 °C 23.0 °C 1011.5 hPa North 8 km/h 12 km/h 83% 0.00 mm 0.00 W/m2
05:14 26.0 °C 23.0 °C 1011.9 hPa North 8 km/h 8 km/h 82% 0.00 mm 0.00 W/m2
05:19 26.0 °C 23.0 °C 1011.9 hPa NNE 13 km/h 16 km/h 83% 0.00 mm 0.00 W/m2
05:24 26.0 °C 23.0 °C 1011.9 hPa North 10 km/h 12 km/h 83% 0.00 mm 0.00 W/m2
05:29 26.0 °C 23.0 °C 1011.9 hPa North 9 km/h 12 km/h 84% 0.00 mm 0.00 W/m2
05:34 26.0 °C 23.0 °C 1012.2 hPa NNE 10 km/h 12 km/h 84% 0.00 mm 0.00 W/m2
05:39 26.0 °C 23.0 °C 1011.9 hPa NNE 8 km/h 12 km/h 84% 0.00 mm 0.00 W/m2
05:44 26.0 °C 23.0 °C 1012.2 hPa North 9 km/h 12 km/h 84% 0.00 mm 0.00 W/m2
05:49 26.0 °C 23.0 °C 1012.2 hPa North 10 km/h 12 km/h 84% 0.00 mm 0.00 W/m2
05:54 26.0 °C 23.0 °C 1012.2 hPa North 13 km/h 16 km/h 84% 0.00 mm 0.00 W/m2
05:59 26.0 °C 23.0 °C 1012.2 hPa NNE 13 km/h 16 km/h 84% 0.00 mm 0.00 W/m2
06:04 26.0 °C 23.0 °C 1012.2 hPa NNE 10 km/h 12 km/h 84% 0.00 mm 0.00 W/m2
06:09 26.0 °C 23.0 °C 1012.2 hPa North 10 km/h 12 km/h 84% 0.00 mm 2.48 W/m2
06:14 26.0 °C 23.0 °C 1012.2 hPa North 10 km/h 12 km/h 84% 0.00 mm 4.78 W/m2
06:19 26.0 °C 23.0 °C 1012.5 hPa North 8 km/h 8 km/h 84% 0.00 mm 5.58 W/m2
06:24 26.0 °C 23.0 °C 1012.2 hPa North 9 km/h 12 km/h 84% 0.00 mm 7.79 W/m2
06:29 26.0 °C 23.0 °C 1012.5 hPa North 8 km/h 8 km/h 84% 0.00 mm 10.64 W/m2
06:34 26.0 °C 23.0 °C 1012.5 hPa NNE 9 km/h 12 km/h 85% 0.00 mm 12.91 W/m2
06:39 26.0 °C 23.0 °C 1012.5 hPa NNE 8 km/h 12 km/h 84% 0.00 mm 17.54 W/m2
06:44 26.0 °C 23.0 °C 1012.9 hPa NNE 6 km/h 8 km/h 84% 0.00 mm 21.45 W/m2
06:49 26.0 °C 23.0 °C 1012.9 hPa NNE 6 km/h 8 km/h 84% 0.00 mm 28.63 W/m2
06:54 26.0 °C 23.0 °C 1013.2 hPa NNW 1 km/h 4 km/h 83% 0.00 mm 32.28 W/m2
06:59 27.0 °C 24.0 °C 1013.2 hPa ENE 2 km/h 4 km/h 83% 0.00 mm 31.85 W/m2
07:04 27.0 °C 23.0 °C 1012.9 hPa North 3 km/h 4 km/h 82% 0.00 mm 31.67 W/m2
07:09 27.0 °C 24.0 °C 1012.9 hPa NE 8 km/h 8 km/h 82% 0.00 mm 33.45 W/m2
07:14 27.0 °C 23.0 °C 1012.9 hPa North 5 km/h 8 km/h 81% 0.00 mm 31.26 W/m2
07:19 27.0 °C 23.0 °C 1013.2 hPa NNE 6 km/h 8 km/h 81% 0.00 mm 26.71 W/m2
07:24 27.0 °C 23.0 °C 1013.2 hPa NNE 6 km/h 8 km/h 81% 0.00 mm 31.47 W/m2
07:29 27.0 °C 23.0 °C 1013.2 hPa North 5 km/h 8 km/h 81% 0.00 mm 44.17 W/m2
07:34 27.0 °C 23.0 °C 1013.6 hPa North 7 km/h 8 km/h 81% 0.00 mm 50.68 W/m2
07:39 27.0 °C 23.0 °C 1013.2 hPa NNW 9 km/h 12 km/h 81% 0.00 mm 59.03 W/m2
07:44 27.0 °C 24.0 °C 1013.6 hPa NNW 9 km/h 12 km/h 81% 0.00 mm 63.53 W/m2
07:49 27.0 °C 24.0 °C 1013.6 hPa NNE 9 km/h 12 km/h 81% 0.00 mm 84.55 W/m2
07:54 27.0 °C 24.0 °C 1013.6 hPa North 10 km/h 12 km/h 81% 0.00 mm 108.36 W/m2
07:59 27.0 °C 24.0 °C 1013.6 hPa North 9 km/h 12 km/h 82% 0.00 mm 106.79 W/m2
08:04 27.0 °C 24.0 °C 1013.6 hPa North 9 km/h 12 km/h 82% 0.00 mm 103.47 W/m2
08:09 27.0 °C 24.0 °C 1013.6 hPa North 9 km/h 12 km/h 81% 0.00 mm 107.14 W/m2
08:14 27.0 °C 24.0 °C 1013.6 hPa North 9 km/h 16 km/h 81% 0.00 mm 125.71 W/m2
08:19 27.0 °C 24.0 °C 1013.6 hPa NNE 14 km/h 16 km/h 80% 0.00 mm 135.32 W/m2
08:24 27.0 °C 24.0 °C 1013.6 hPa North 12 km/h 16 km/h 80% 0.00 mm 128.55 W/m2
08:29 27.0 °C 23.0 °C 1013.6 hPa North 14 km/h 20 km/h 80% 0.00 mm 105.64 W/m2
08:34 27.0 °C 24.0 °C 1013.9 hPa North 10 km/h 12 km/h 80% 0.00 mm 114.67 W/m2
08:39 27.0 °C 23.0 °C 1013.6 hPa North 13 km/h 16 km/h 79% 0.00 mm 136.74 W/m2
08:44 27.0 °C 23.0 °C 1013.6 hPa North 14 km/h 16 km/h 80% 0.00 mm 138.80 W/m2
08:49 27.0 °C 23.0 °C 1013.9 hPa North 12 km/h 16 km/h 80% 0.00 mm 131.80 W/m2
08:54 27.0 °C 23.0 °C 1013.6 hPa North 13 km/h 16 km/h 80% 0.00 mm 146.65 W/m2
08:59 27.0 °C 24.0 °C 1013.6 hPa North 15 km/h 16 km/h 80% 0.00 mm 146.53 W/m2
09:04 27.0 °C 24.0 °C 1013.6 hPa North 12 km/h 16 km/h 80% 0.00 mm 137.11 W/m2
09:09 27.0 °C 23.0 °C 1013.9 hPa North 12 km/h 16 km/h 79% 0.00 mm 130.11 W/m2
09:14 28.0 °C 23.0 °C 1013.9 hPa NNE 12 km/h 16 km/h 78% 0.00 mm 181.08 W/m2
09:19 28.0 °C 23.0 °C 1013.9 hPa North 15 km/h 20 km/h 78% 0.00 mm 187.49 W/m2
09:24 28.0 °C 23.0 °C 1013.9 hPa North 15 km/h 16 km/h 78% 0.00 mm 163.88 W/m2
09:29 28.0 °C 23.0 °C 1013.9 hPa North 14 km/h 16 km/h 78% 0.00 mm 150.81 W/m2
09:34 28.0 °C 23.0 °C 1013.9 hPa NNE 15 km/h 16 km/h 77% 0.00 mm 144.38 W/m2
09:39 28.0 °C 24.0 °C 1013.9 hPa North 14 km/h 16 km/h 77% 0.00 mm 171.39 W/m2
09:44 28.0 °C 23.0 °C 1013.9 hPa North 17 km/h 20 km/h 77% 0.00 mm 189.45 W/m2
09:49 29.0 °C 24.0 °C 1013.9 hPa NNE 10 km/h 12 km/h 77% 0.00 mm 184.92 W/m2
09:54 29.0 °C 24.0 °C 1013.9 hPa North 10 km/h 12 km/h 76% 0.00 mm 193.48 W/m2
09:59 28.0 °C 24.0 °C 1014.2 hPa NNE 14 km/h 16 km/h 77% 0.00 mm 201.65 W/m2
10:04 28.0 °C 24.0 °C 1014.2 hPa NNW 13 km/h 20 km/h 78% 0.00 mm 202.46 W/m2
10:09 28.0 °C 24.0 °C 1014.2 hPa NNE 10 km/h 12 km/h 77% 0.00 mm 200.63 W/m2
10:14 28.0 °C 24.0 °C 1014.2 hPa North 11 km/h 16 km/h 77% 0.00 mm 214.01 W/m2
10:19 28.0 °C 24.0 °C 1014.2 hPa North 15 km/h 16 km/h 76% 0.00 mm 230.50 W/m2
10:24 29.0 °C 24.0 °C 1014.2 hPa North 10 km/h 12 km/h 75% 0.00 mm 314.99 W/m2
10:29 29.0 °C 24.0 °C 1013.9 hPa North 12 km/h 16 km/h 74% 0.00 mm 322.99 W/m2
10:34 29.0 °C 24.0 °C 1013.9 hPa North 14 km/h 16 km/h 75% 0.00 mm 272.05 W/m2
10:39 29.0 °C 24.0 °C 1013.9 hPa North 19 km/h 20 km/h 75% 0.00 mm 245.11 W/m2
10:44 29.0 °C 24.0 °C 1013.9 hPa NNE 10 km/h 16 km/h 75% 0.00 mm 374.81 W/m2
10:49 30.0 °C 24.0 °C 1013.9 hPa NNW 13 km/h 16 km/h 72% 0.00 mm 519.95 W/m2
10:54 30.0 °C 24.0 °C 1013.9 hPa North 14 km/h 16 km/h 71% 0.00 mm 594.13 W/m2
10:59 30.0 °C 24.0 °C 1013.9 hPa North 10 km/h 12 km/h 71% 0.00 mm 519.70 W/m2
11:04 30.0 °C 24.0 °C 1013.6 hPa NNE 17 km/h 20 km/h 70% 0.00 mm 258.52 W/m2
11:09 30.0 °C 24.0 °C 1013.6 hPa NNE 10 km/h 12 km/h 70% 0.00 mm 270.87 W/m2
11:14 31.0 °C 24.0 °C 1013.6 hPa North 15 km/h 20 km/h 69% 0.00 mm 270.43 W/m2
11:19 31.0 °C 24.0 °C 1013.6 hPa NE 16 km/h 24 km/h 68% 0.00 mm 292.82 W/m2
11:24 30.0 °C 24.0 °C 1013.6 hPa NNE 17 km/h 20 km/h 68% 0.00 mm 264.22 W/m2
11:29 30.0 °C 24.0 °C 1013.6 hPa NNE 27 km/h 28 km/h 68% 0.00 mm 231.24 W/m2
11:34 30.0 °C 24.0 °C 1013.6 hPa East 10 km/h 12 km/h 67% 0.00 mm 183.60 W/m2
11:39 31.0 °C 23.0 °C 1013.6 hPa NNE 24 km/h 28 km/h 66% 0.00 mm 231.77 W/m2
11:44 30.0 °C 23.0 °C 1013.2 hPa NNE 22 km/h 28 km/h 66% 0.00 mm 277.85 W/m2
11:49 30.0 °C 23.0 °C 1013.2 hPa NE 15 km/h 20 km/h 67% 0.00 mm 294.34 W/m2
11:54 30.0 °C 24.0 °C 1012.9 hPa NNE 15 km/h 20 km/h 68% 0.00 mm 307.87 W/m2
11:59 30.0 °C 24.0 °C 1012.9 hPa North 17 km/h 20 km/h 69% 0.00 mm 233.90 W/m2
12:04 30.0 °C 23.0 °C 1012.9 hPa North 14 km/h 16 km/h 69% 0.00 mm 163.44 W/m2
12:09 30.0 °C 23.0 °C 1012.9 hPa North 15 km/h 16 km/h 69% 0.00 mm 182.42 W/m2
12:14 30.0 °C 23.0 °C 1012.9 hPa NNE 15 km/h 16 km/h 69% 0.00 mm 194.00 W/m2
12:19 30.0 °C 23.0 °C 1012.9 hPa North 17 km/h 20 km/h 69% 0.00 mm 242.27 W/m2
12:24 31.0 °C 24.0 °C 1012.9 hPa NNE 10 km/h 12 km/h 69% 0.00 mm 260.79 W/m2
12:29 30.0 °C 23.0 °C 1012.9 hPa NNE 20 km/h 24 km/h 68% 0.00 mm 259.84 W/m2
12:34 29.0 °C 23.0 °C 1012.5 hPa North 17 km/h 20 km/h 69% 0.00 mm 235.13 W/m2
12:39 30.0 °C 23.0 °C 1012.2 hPa NNE 11 km/h 16 km/h 69% 0.00 mm 212.86 W/m2
12:44 30.0 °C 24.0 °C 1012.2 hPa NE 6 km/h 8 km/h 72% 0.00 mm 181.00 W/m2
12:49 30.0 °C 24.0 °C 1012.5 hPa SSE 10 km/h 12 km/h 76% 0.00 mm 143.18 W/m2
12:54 29.0 °C 24.0 °C 1012.2 hPa SE 12 km/h 12 km/h 78% 0.00 mm 147.02 W/m2
12:59 29.0 °C 24.0 °C 1012.2 hPa SSE 8 km/h 8 km/h 78% 0.00 mm 136.77 W/m2
13:04 29.0 °C 24.0 °C 1012.2 hPa South 5 km/h 8 km/h 76% 0.00 mm 116.53 W/m2
13:09 29.0 °C 24.0 °C 1012.2 hPa SE 10 km/h 12 km/h 76% 0.00 mm 142.49 W/m2
13:14 29.0 °C 24.0 °C 1012.2 hPa SSE 6 km/h 8 km/h 76% 0.00 mm 142.79 W/m2
13:19 29.0 °C 24.0 °C 1011.9 hPa SSW 9 km/h 12 km/h 75% 0.00 mm 108.80 W/m2
13:24 29.0 °C 24.0 °C 1011.9 hPa West 9 km/h 12 km/h 75% 0.00 mm 132.29 W/m2
13:29 29.0 °C 24.0 °C 1011.9 hPa SSE 10 km/h 12 km/h 76% 0.00 mm 140.95 W/m2
13:34 29.0 °C 24.0 °C 1011.9 hPa SSE 9 km/h 16 km/h 75% 0.00 mm 132.80 W/m2
13:39 30.0 °C 24.0 °C 1011.9 hPa East 2 km/h 4 km/h 74% 0.00 mm 179.32 W/m2
13:44 30.0 °C 24.0 °C 1011.9 hPa ESE 5 km/h 8 km/h 71% 0.00 mm 209.07 W/m2
13:49 31.0 °C 24.0 °C 1011.9 hPa ENE 10 km/h 20 km/h 67% 0.00 mm 241.93 W/m2
13:54 31.0 °C 24.0 °C 1011.5 hPa NNE 15 km/h 24 km/h 66% 0.00 mm 245.50 W/m2
13:59 31.0 °C 23.0 °C 1011.5 hPa NNE 17 km/h 20 km/h 66% 0.00 mm 208.58 W/m2
14:04 30.0 °C 23.0 °C 1011.5 hPa North 28 km/h 36 km/h 67% 0.00 mm 234.91 W/m2
14:09 30.0 °C 23.0 °C 1011.9 hPa NNE 19 km/h 24 km/h 66% 0.00 mm 252.47 W/m2
14:14 30.0 °C 23.0 °C 1011.5 hPa NNE 10 km/h 16 km/h 66% 0.00 mm 257.59 W/m2
14:19 31.0 °C 23.0 °C 1011.5 hPa NNE 12 km/h 16 km/h 66% 0.00 mm 252.15 W/m2
14:24 31.0 °C 23.0 °C 1011.2 hPa North 23 km/h 28 km/h 66% 0.00 mm 239.38 W/m2
14:29 30.0 °C 23.0 °C 1011.2 hPa NNE 15 km/h 24 km/h 67% 0.00 mm 207.70 W/m2
14:34 30.0 °C 23.0 °C 1011.2 hPa NNE 12 km/h 16 km/h 67% 0.00 mm 189.62 W/m2
14:39 30.0 °C 23.0 °C 1011.2 hPa NE 15 km/h 20 km/h 67% 0.00 mm 178.04 W/m2
14:44 30.0 °C 23.0 °C 1011.2 hPa NNE 22 km/h 28 km/h 66% 0.00 mm 133.64 W/m2
14:49 30.0 °C 23.0 °C 1011.2 hPa NNE 23 km/h 24 km/h 67% 0.00 mm 163.90 W/m2
14:54 30.0 °C 23.0 °C 1011.2 hPa NNE 14 km/h 16 km/h 67% 0.00 mm 165.71 W/m2
14:59 30.0 °C 23.0 °C 1011.2 hPa NE 10 km/h 16 km/h 66% 0.00 mm 188.15 W/m2
15:04 30.0 °C 23.0 °C 1011.2 hPa North 21 km/h 24 km/h 67% 0.00 mm 199.31 W/m2
15:09 30.0 °C 23.0 °C 1010.8 hPa NNE 20 km/h 24 km/h 67% 0.00 mm 210.71 W/m2
15:14 30.0 °C 23.0 °C 1011.2 hPa NNE 21 km/h 24 km/h 67% 0.00 mm 208.06 W/m2
15:19 30.0 °C 23.0 °C 1011.2 hPa NNE 19 km/h 24 km/h 67% 0.00 mm 212.05 W/m2
15:24 30.0 °C 23.0 °C 1011.2 hPa NNE 19 km/h 24 km/h 67% 0.00 mm 199.06 W/m2
15:29 30.0 °C 23.0 °C 1011.2 hPa NNE 26 km/h 32 km/h 68% 0.00 mm 178.68 W/m2
15:34 29.0 °C 23.0 °C 1011.2 hPa North 24 km/h 28 km/h 68% 0.00 mm 182.91 W/m2
15:39 29.0 °C 23.0 °C 1011.2 hPa NNE 22 km/h 24 km/h 68% 0.00 mm 167.74 W/m2
15:44 29.0 °C 23.0 °C 1011.2 hPa NNE 25 km/h 28 km/h 69% 0.00 mm 143.06 W/m2
15:49 29.0 °C 23.0 °C 1011.2 hPa NNE 24 km/h 36 km/h 69% 0.00 mm 123.65 W/m2
15:54 29.0 °C 23.0 °C 1011.2 hPa North 19 km/h 20 km/h 69% 0.00 mm 93.93 W/m2
15:59 29.0 °C 23.0 °C 1011.2 hPa NNE 17 km/h 24 km/h 69% 0.00 mm 96.27 W/m2
16:04 29.0 °C 23.0 °C 1011.2 hPa ESE 11 km/h 16 km/h 69% 0.00 mm 96.59 W/m2
16:09 29.0 °C 23.0 °C 1011.2 hPa NNE 15 km/h 16 km/h 69% 0.00 mm 143.99 W/m2
16:14 30.0 °C 23.0 °C 1011.2 hPa ENE 13 km/h 16 km/h 68% 0.00 mm 142.22 W/m2
16:19 30.0 °C 23.0 °C 1011.2 hPa NNE 20 km/h 28 km/h 68% 0.00 mm 123.26 W/m2
16:24 29.0 °C 23.0 °C 1011.5 hPa NNE 17 km/h 24 km/h 68% 0.00 mm 102.19 W/m2
16:29 29.0 °C 23.0 °C 1011.2 hPa NE 18 km/h 20 km/h 69% 0.00 mm 95.47 W/m2
16:34 29.0 °C 23.0 °C 1011.2 hPa NE 18 km/h 24 km/h 69% 0.00 mm 99.60 W/m2
16:39 29.0 °C 23.0 °C 1011.2 hPa NE 17 km/h 24 km/h 69% 0.00 mm 86.27 W/m2
16:44 29.0 °C 23.0 °C 1011.2 hPa NNE 12 km/h 20 km/h 69% 0.00 mm 70.66 W/m2
16:49 29.0 °C 23.0 °C 1011.2 hPa NE 14 km/h 16 km/h 69% 0.00 mm 60.87 W/m2
16:54 29.0 °C 23.0 °C 1011.5 hPa NE 13 km/h 16 km/h 69% 0.00 mm 55.53 W/m2
16:59 29.0 °C 23.0 °C 1011.5 hPa NNE 18 km/h 20 km/h 69% 0.00 mm 46.89 W/m2
17:04 29.0 °C 23.0 °C 1011.5 hPa NNE 19 km/h 20 km/h 69% 0.00 mm 43.35 W/m2
17:09 29.0 °C 23.0 °C 1011.5 hPa NNE 18 km/h 20 km/h 69% 0.00 mm 42.24 W/m2
17:14 29.0 °C 23.0 °C 1011.5 hPa NE 15 km/h 20 km/h 69% 0.00 mm 36.37 W/m2
17:19 29.0 °C 23.0 °C 1011.5 hPa NNE 15 km/h 20 km/h 69% 0.00 mm 29.42 W/m2
17:24 29.0 °C 23.0 °C 1011.5 hPa NE 15 km/h 20 km/h 69% 0.00 mm 24.60 W/m2
17:29 29.0 °C 23.0 °C 1011.9 hPa NNE 15 km/h 28 km/h 70% 0.00 mm 19.09 W/m2
17:34 28.0 °C 22.0 °C 1011.5 hPa NNE 18 km/h 20 km/h 70% 0.00 mm 16.37 W/m2
17:39 28.0 °C 22.0 °C 1011.9 hPa NE 20 km/h 24 km/h 70% 0.00 mm 11.27 W/m2
17:44 28.0 °C 22.0 °C 1011.9 hPa NNE 12 km/h 12 km/h 70% 0.00 mm 7.88 W/m2
17:49 28.0 °C 23.0 °C 1011.9 hPa NNE 21 km/h 28 km/h 71% 0.00 mm 4.86 W/m2
17:54 28.0 °C 23.0 °C 1011.9 hPa NNE 25 km/h 28 km/h 71% 0.00 mm 3.54 W/m2
17:59 28.0 °C 23.0 °C 1012.2 hPa NNE 17 km/h 20 km/h 71% 0.00 mm 1.86 W/m2
18:04 28.0 °C 23.0 °C 1011.9 hPa NNW 9 km/h 12 km/h 71% 0.00 mm 0.11 W/m2
18:09 28.0 °C 23.0 °C 1011.9 hPa NE 10 km/h 12 km/h 71% 0.00 mm 0.00 W/m2
18:14 28.0 °C 23.0 °C 1012.2 hPa NE 11 km/h 12 km/h 71% 0.00 mm 0.00 W/m2
18:19 28.0 °C 23.0 °C 1012.2 hPa NE 15 km/h 20 km/h 71% 0.00 mm 0.00 W/m2
18:24 28.0 °C 23.0 °C 1012.2 hPa NNE 15 km/h 20 km/h 71% 0.00 mm 0.00 W/m2
18:29 28.0 °C 22.0 °C 1012.2 hPa NNE 15 km/h 24 km/h 71% 0.00 mm 0.00 W/m2
18:34 28.0 °C 22.0 °C 1012.2 hPa NE 10 km/h 12 km/h 71% 0.00 mm 0.00 W/m2
18:39 28.0 °C 23.0 °C 1012.2 hPa NNE 15 km/h 20 km/h 71% 0.00 mm 0.00 W/m2
18:44 28.0 °C 23.0 °C 1012.2 hPa NE 12 km/h 16 km/h 71% 0.00 mm 0.00 W/m2
18:49 28.0 °C 23.0 °C 1012.2 hPa NE 10 km/h 12 km/h 72% 0.00 mm 0.00 W/m2
18:54 28.0 °C 23.0 °C 1012.2 hPa NNE 20 km/h 24 km/h 71% 0.00 mm 0.00 W/m2
18:59 28.0 °C 23.0 °C 1012.2 hPa NE 7 km/h 12 km/h 71% 0.00 mm 0.00 W/m2
19:04 28.0 °C 23.0 °C 1012.2 hPa NE 15 km/h 20 km/h 71% 0.00 mm 0.00 W/m2
19:09 28.0 °C 23.0 °C 1012.5 hPa NE 10 km/h 12 km/h 71% 0.00 mm 0.00 W/m2
19:14 28.0 °C 23.0 °C 1012.2 hPa ESE 5 km/h 8 km/h 71% 0.00 mm 0.00 W/m2
19:19 28.0 °C 23.0 °C 1012.5 hPa NE 12 km/h 16 km/h 71% 0.00 mm 0.00 W/m2
19:24 28.0 °C 23.0 °C 1012.5 hPa ENE 7 km/h 12 km/h 71% 0.00 mm 0.00 W/m2
19:29 28.0 °C 23.0 °C 1012.5 hPa NE 10 km/h 16 km/h 71% 0.00 mm 0.00 W/m2
19:34 28.0 °C 22.0 °C 1012.5 hPa NNE 14 km/h 16 km/h 71% 0.00 mm 0.00 W/m2
19:39 28.0 °C 22.0 °C 1012.5 hPa SSE 7 km/h 12 km/h 71% 0.00 mm 0.00 W/m2
19:44 28.0 °C 22.0 °C 1012.5 hPa NE 10 km/h 16 km/h 71% 0.00 mm 0.00 W/m2
19:49 28.0 °C 23.0 °C 1012.5 hPa ESE 3 km/h 4 km/h 71% 0.00 mm 0.00 W/m2
19:54 28.0 °C 23.0 °C 1012.9 hPa SE 4 km/h 8 km/h 71% 0.00 mm 0.00 W/m2
19:59 28.0 °C 23.0 °C 1012.9 hPa ENE 4 km/h 8 km/h 71% 0.00 mm 0.00 W/m2
20:04 28.0 °C 23.0 °C 1012.9 hPa NE 1 km/h 4 km/h 72% 0.00 mm 0.00 W/m2
20:09 28.0 °C 23.0 °C 1012.9 hPa NE 9 km/h 12 km/h 72% 0.00 mm 0.00 W/m2
20:14 28.0 °C 23.0 °C 1012.9 hPa East 5 km/h 8 km/h 72% 0.00 mm 0.00 W/m2
20:19 28.0 °C 23.0 °C 1012.9 hPa East 4 km/h 4 km/h 73% 0.00 mm 0.00 W/m2
20:24 28.0 °C 23.0 °C 1013.2 hPa East 4 km/h 4 km/h 73% 0.00 mm 0.00 W/m2
20:29 28.0 °C 23.0 °C 1012.9 hPa ESE 6 km/h 8 km/h 73% 0.00 mm 0.00 W/m2
20:34 28.0 °C 23.0 °C 1013.2 hPa ESE 8 km/h 12 km/h 73% 0.00 mm 0.00 W/m2
20:39 28.0 °C 22.0 °C 1013.2 hPa SE 7 km/h 8 km/h 73% 0.00 mm 0.00 W/m2
20:44 28.0 °C 22.0 °C 1013.2 hPa ESE 10 km/h 12 km/h 73% 0.00 mm 0.00 W/m2
20:49 28.0 °C 22.0 °C 1013.6 hPa ESE 5 km/h 8 km/h 73% 0.00 mm 0.00 W/m2
20:54 28.0 °C 22.0 °C 1013.6 hPa East 6 km/h 8 km/h 73% 0.00 mm 0.00 W/m2
20:59 28.0 °C 22.0 °C 1013.6 hPa SE 6 km/h 12 km/h 73% 0.00 mm 0.00 W/m2
21:04 28.0 °C 22.0 °C 1013.6 hPa SE 5 km/h 8 km/h 73% 0.00 mm 0.00 W/m2
21:09 28.0 °C 22.0 °C 1013.2 hPa ENE 4 km/h 4 km/h 73% 0.00 mm 0.00 W/m2
21:14 28.0 °C 22.0 °C 1013.6 hPa ESE 4 km/h 8 km/h 73% 0.00 mm 0.00 W/m2
21:19 28.0 °C 22.0 °C 1013.6 hPa ESE 7 km/h 8 km/h 73% 0.00 mm 0.00 W/m2
21:24 28.0 °C 22.0 °C 1013.6 hPa SE 7 km/h 12 km/h 73% 0.00 mm 0.00 W/m2
21:29 28.0 °C 22.0 °C 1013.6 hPa East 9 km/h 12 km/h 73% 0.00 mm 0.00 W/m2
21:34 28.0 °C 22.0 °C 1013.6 hPa ESE 3 km/h 4 km/h 73% 0.00 mm 0.00 W/m2
21:39 28.0 °C 22.0 °C 1013.6 hPa ESE 4 km/h 8 km/h 73% 0.00 mm 0.00 W/m2
21:44 28.0 °C 22.0 °C 1013.6 hPa SE 5 km/h 8 km/h 73% 0.00 mm 0.00 W/m2
21:49 28.0 °C 22.0 °C 1013.6 hPa East 5 km/h 8 km/h 73% 0.00 mm 0.00 W/m2
21:54 28.0 °C 22.0 °C 1013.2 hPa East 4 km/h 8 km/h 73% 0.00 mm 0.00 W/m2
21:59 28.0 °C 22.0 °C 1013.6 hPa East 5 km/h 8 km/h 73% 0.00 mm 0.00 W/m2
22:04 27.0 °C 22.0 °C 1013.2 hPa ESE 5 km/h 8 km/h 74% 0.00 mm 0.00 W/m2
22:09 27.0 °C 22.0 °C 1013.2 hPa ESE 5 km/h 8 km/h 74% 0.00 mm 0.00 W/m2
22:14 27.0 °C 22.0 °C 1013.2 hPa ESE 4 km/h 8 km/h 74% 0.00 mm 0.00 W/m2
22:19 28.0 °C 23.0 °C 1013.2 hPa Calm     74% 0.00 mm 0.00 W/m2
22:24 28.0 °C 23.0 °C 1013.2 hPa East 3 km/h 4 km/h 74% 0.00 mm 0.00 W/m2
22:29 28.0 °C 22.0 °C 1013.2 hPa NNE 4 km/h 8 km/h 73% 0.00 mm 0.00 W/m2
22:34 27.0 °C 22.0 °C 1013.2 hPa NNE 6 km/h 8 km/h 74% 0.00 mm 0.00 W/m2
22:39 27.0 °C 22.0 °C 1013.2 hPa NNE 4 km/h 4 km/h 75% 0.00 mm 0.00 W/m2
22:44 27.0 °C 22.0 °C 1013.2 hPa NNE 6 km/h 8 km/h 75% 0.00 mm 0.00 W/m2
22:49 27.0 °C 22.0 °C 1013.2 hPa NNE 6 km/h 8 km/h 74% 0.00 mm 0.00 W/m2
22:54 27.0 °C 22.0 °C 1013.2 hPa Calm     74% 0.00 mm 0.00 W/m2
22:59 28.0 °C 22.0 °C 1013.2 hPa Calm   4 km/h 74% 0.00 mm 0.00 W/m2
23:04 28.0 °C 23.0 °C 1013.2 hPa Calm     74% 0.00 mm 0.00 W/m2
23:09 27.0 °C 22.0 °C 1013.2 hPa Calm     74% 0.00 mm 0.00 W/m2
23:14 27.0 °C 22.0 °C 1013.2 hPa SSE 4 km/h 4 km/h 73% 0.00 mm 0.00 W/m2
23:19 28.0 °C 22.0 °C 1013.2 hPa Calm     73% 0.00 mm 0.00 W/m2
23:24 27.0 °C 22.0 °C 1012.9 hPa Calm     74% 0.00 mm 0.00 W/m2
23:29 27.0 °C 22.0 °C 1013.2 hPa South 3 km/h 4 km/h 74% 0.00 mm 0.00 W/m2
23:34 27.0 °C 22.0 °C 1013.2 hPa North 4 km/h 4 km/h 75% 0.00 mm 0.00 W/m2
23:39 27.0 °C 22.0 °C 1013.2 hPa NW 5 km/h 8 km/h 75% 0.00 mm 0.00 W/m2
23:44 27.0 °C 22.0 °C 1012.9 hPa Calm     75% 0.00 mm 0.00 W/m2
23:49 27.0 °C 22.0 °C 1012.9 hPa SSE 5 km/h 8 km/h 74% 0.00 mm 0.00 W/m2
23:54 27.0 °C 22.0 °C 1012.9 hPa SE 6 km/h 8 km/h 74% 0.00 mm 0.00 W/m2
23:59 27.0 °C 22.0 °C 1013.2 hPa Calm     74% 0.00 mm 0.00 W/m2
PIMOHWEATHER Philippines
Compliments of Weather Underground - 2 mb